Location: Buchloe
(48.0161°N, 10.7316°E)
Time: 04:13:24
(UTC+02:00)

ISS - Pass Details

Date: 07 July 2025
Orbit: 413 x 417 km, 51.6° (Epoch: 12 July)

Event Time Altitude Azimuth Distance (km) Brightness Sun altitude
Rises 21:59:56 0° 197° (SSW) 2,335 -0.2 -6.2°
Reaches altitude 10° 22:02:38 10° 173° (S) 1,479 -1.4 -6.5°
Maximum altitude 22:04:38 15° 136° (SE) 1,211 -2.1 -6.8°
Drops below altitude 10° 22:06:38 10° 99° (E) 1,487 -1.4 -7.0°
Sets 22:09:21 0° 76° (ENE) 2,355 -0.2 -7.3°
